| time (UTC) | temp F | wind direction | speed MPH | gust MPH | rain 1hr in | rain 24hr in | rain mn in | humidity % | barometer mb |
| 20260901220320 | 91 | 297 | 3.0 | 5.0 | 0.00 | 0.00 | 0.00 | 56 | 1012.7 |
| 20260901215317 | 91 | 252 | 2.0 | 8.0 | 0.00 | 0.00 | 0.00 | 56 | 1012.7 |
| 20260901214316 | 92 | 309 | 4.0 | 9.0 | 0.00 | 0.00 | 0.00 | 55 | 1012.7 |
| 20260901213332 | 92 | 309 | 3.0 | 6.0 | 0.00 | 0.00 | 0.00 | 56 | 1012.9 |
| 20260901212321 | 91 | 288 | 5.0 | 10.0 | 0.00 | 0.00 | 0.00 | 54 | 1012.9 |
| 20260901211314 | 91 | 280 | 4.0 | 10.0 | 0.00 | 0.00 | 0.00 | 54 | 1012.9 |
| 20260901210338 | 92 | 280 | 6.0 | 13.0 | 0.00 | 0.00 | 0.00 | 53 | 1012.8 |
| 20260901205313 | 92 | 277 | 5.0 | 11.0 | 0.00 | 0.00 | 0.00 | 54 | 1012.9 |
| 20260901204322 | 93 | 322 | 4.0 | 10.0 | 0.00 | 0.00 | 0.00 | 52 | 1012.8 |
| 20260901203316 | 94 | 265 | 5.0 | 13.0 | 0.00 | 0.00 | 0.00 | 52 | 1012.9 |
| 20260901202329 | 94 | 315 | 8.0 | 13.0 | 0.00 | 0.00 | 0.00 | 50 | 1012.9 |
| 20260901201334 | 95 | 302 | 6.0 | 10.0 | 0.00 | 0.00 | 0.00 | 54 | 1013.0 |
| 20260901200335 | 95 | 316 | 6.0 | 12.0 | 0.00 | 0.00 | 0.00 | 51 | 1013.0 |
| 20260901195322 | 95 | 293 | 6.0 | 11.0 | 0.00 | 0.00 | 0.00 | 50 | 1013.0 |
| 20260901194317 | 95 | 269 | 6.0 | 12.0 | 0.00 | 0.00 | 0.00 | 51 | 1013.1 |
| 20260901193338 | 94 | 254 | 3.0 | 10.0 | 0.00 | 0.00 | 0.00 | 54 | 1013.2 |
| 20260901192337 | 93 | 257 | 2.0 | 10.0 | 0.00 | 0.00 | 0.00 | 54 | 1013.3 |
| 20260901191314 | 93 | 292 | 5.0 | 10.0 | 0.00 | 0.00 | 0.00 | 52 | 1013.5 |
| 20260901190315 | 94 | 297 | 8.0 | 12.0 | 0.00 | 0.00 | 0.00 | 52 | 1013.7 |
| 20260901185314 | 94 | 306 | 8.0 | 13.0 | 0.00 | 0.00 | 0.00 | 52 | 1013.7 |
| 20260901184321 | 93 | 309 | 5.0 | 10.0 | 0.00 | 0.00 | 0.00 | 54 | 1013.9 |
| 20260901183315 | 94 | 298 | 1.0 | 14.0 | 0.00 | 0.00 | 0.00 | 57 | 1013.9 |
| 20260901182358 | 93 | 320 | 4.0 | 8.0 | 0.00 | 0.00 | 0.00 | 61 | 1014.1 |
| 20260901181336 | 93 | 291 | 2.0 | 10.0 | 0.00 | 0.00 | 0.00 | 59 | 1014.2 |
| 20260901180314 | 92 | 327 | 5.0 | 9.0 | 0.00 | 0.00 | 0.00 | 62 | 1014.3 |
| 20260901175339 | 92 | 238 | 3.0 | 8.0 | 0.00 | 0.00 | 0.00 | 62 | 1014.3 |
| 20260901174317 | 90 | 180 | 3.0 | 7.0 | 0.00 | 0.00 | 0.00 | 65 | 1014.4 |
| 20260901173337 | 91 | 241 | 4.0 | 10.0 | 0.00 | 0.00 | 0.00 | 64 | 1014.2 |
| 20260901172358 | 89 | 202 | 5.0 | 8.0 | 0.00 | 0.00 | 0.00 | 68 | 1014.3 |
| 20260901171338 | 89 | 161 | 3.0 | 5.0 | 0.00 | 0.00 | 0.00 | 68 | 1014.4 |
| 20260901170317 | 88 | 182 | 3.0 | 7.0 | 0.00 | 0.00 | 0.00 | 69 | 1014.5 |
| 20260901165339 | 88 | 229 | 2.0 | 5.0 | 0.00 | 0.00 | 0.00 | 72 | 1014.7 |
| 20260901164320 | 88 | 292 | 2.0 | 5.0 | 0.00 | 0.00 | 0.00 | 70 | 1014.8 |
| 20260901163316 | 87 | 228 | 2.0 | 6.0 | 0.00 | 0.00 | 0.00 | 71 | 1014.8 |
| 20260901162317 | 87 | 173 | 2.0 | 4.0 | 0.00 | 0.00 | 0.00 | 71 | 1014.8 |
| 20260901161318 | 87 | 211 | 2.0 | 8.0 | 0.00 | 0.00 | 0.00 | 72 | 1015.1 |
| 20260901160316 | 87 | 233 | 1.0 | 8.0 | 0.00 | 0.00 | 0.00 | 67 | 1015.4 |
| 20260901155342 | 88 | 159 | 4.0 | 8.0 | 0.00 | 0.00 | 0.00 | 67 | 1015.3 |
| 20260901154330 | 87 | 249 | 2.0 | 7.0 | 0.00 | 0.00 | 0.00 | 71 | 1015.4 |
| 20260901153324 | 87 | 271 | 3.0 | 10.0 | 0.00 | 0.00 | 0.00 | 70 | 1015.5 |
| 20260901152312 | 87 | 217 | 5.0 | 8.0 | 0.00 | 0.00 | 0.00 | 68 | 1015.4 |
| 20260901151313 | 86 | 179 | 3.0 | 6.0 | 0.00 | 0.00 | 0.00 | 73 | 1015.4 |
| 20260901150335 | 84 | 208 | 3.0 | 6.0 | 0.00 | 0.00 | 0.00 | 76 | 1015.5 |
| 20260901145328 | 84 | 227 | 2.0 | 5.0 | 0.00 | 0.00 | 0.00 | 73 | 1015.6 |
| 20260901144319 | 84 | 175 | 4.0 | 6.0 | 0.00 | 0.00 | 0.00 | 73 | 1015.5 |
| 20260901143349 | 83 | 116 | 3.0 | 9.0 | 0.00 | 0.00 | 0.00 | 75 | 1015.7 |
| 20260901142312 | 83 | 244 | 3.0 | 9.0 | 0.00 | 0.00 | 0.00 | 75 | 1015.8 |
| 20260901141337 | 81 | 189 | 3.0 | 6.0 | 0.00 | 0.00 | 0.00 | 80 | 1015.8 |
| 20260901140335 | 79 | 209 | 2.0 | 5.0 | 0.00 | 0.00 | 0.00 | 81 | 1015.8 |
| 20260901135318 | 79 | 158 | 2.0 | 6.0 | 0.00 | 0.00 | 0.00 | 80 | 1015.9 |
| 20260901134312 | 79 | 178 | 3.0 | 5.0 | 0.00 | 0.00 | 0.00 | 81 | 1016.0 |
| 20260901133320 | 80 | 164 | 2.0 | 5.0 | 0.00 | 0.00 | 0.00 | 80 | 1016.0 |
| 20260901132331 | 79 | 180 | 3.0 | 5.0 | 0.00 | 0.00 | 0.00 | 81 | 1016.0 |
| 20260901131313 | 79 | 224 | 2.0 | 5.0 | 0.00 | 0.00 | 0.00 | 84 | 1016.0 |
| 20260901130334 | 77 | 126 | 3.0 | 6.0 | 0.00 | 0.00 | 0.00 | 87 | 1016.0 |
| 20260901125314 | 76 | 151 | 1.0 | 2.0 | 0.00 | 0.00 | 0.00 | 88 | 1016.2 |
| 20260901124315 | 76 | 204 | 1.0 | 2.0 | 0.00 | 0.00 | 0.00 | 88 | 1016.4 |
| 20260901123352 | 76 | 165 | 2.0 | 3.0 | 0.00 | 0.00 | 0.00 | 89 | 1016.3 |
| 20260901122314 | 75 | 170 | 2.0 | 3.0 | 0.00 | 0.00 | 0.00 | 90 | 1016.4 |
| 20260901121337 | 75 | 157 | 1.0 | 3.0 | 0.00 | 0.00 | 0.00 | 91 | 1016.4 |
| 20260901120316 | 74 | 202 | 1.0 | 3.0 | 0.00 | 0.00 | 0.00 | 92 | 1016.3 |
| 20260901115358 | 74 | 202 | 1.0 | 2.0 | 0.00 | 0.00 | 0.00 | 92 | 1016.3 |
| 20260901114314 | 73 | 202 | 0.0 | 2.0 | 0.00 | 0.00 | 0.00 | 92 | 1016.2 |
| 20260901113334 | 73 | 202 | 1.0 | 3.0 | 0.00 | 0.00 | 0.00 | 92 | 1016.2 |
| 20260901112352 | 73 | 150 | 0.0 | 0.0 | 0.00 | 0.00 | 0.00 | 92 | 1016.0 |
| 20260901111312 | 72 | 150 | 0.0 | 1.0 | 0.00 | 0.00 | 0.00 | 92 | 1015.8 |
| 20260901110313 | 72 | 150 | 0.0 | 2.0 | 0.00 | 0.00 | 0.00 | 91 | 1015.8 |
| 20260901105313 | 73 | 167 | 1.0 | 3.0 | 0.00 | 0.00 | 0.00 | 91 | 1015.7 |
| 20260901104339 | 73 | 167 | 1.0 | 2.0 | 0.00 | 0.00 | 0.00 | 90 | 1015.8 |
| 20260901103321 | 73 | 167 | 1.0 | 2.0 | 0.00 | 0.00 | 0.00 | 90 | 1015.6 |
| 20260901102314 | 73 | 167 | 0.0 | 1.0 | 0.00 | 0.00 | 0.00 | 90 | 1015.6 |
| 20260901101340 | 74 | 167 | 0.0 | 1.0 | 0.00 | 0.00 | 0.00 | 89 | 1015.6 |
| 20260901100312 | 74 | 167 | 0.0 | 1.0 | 0.00 | 0.00 | 0.00 | 89 | 1015.7 |
| 20260901095337 | 74 | 167 | 0.0 | 2.0 | 0.00 | 0.00 | 0.00 | 89 | 1015.7 |
| 20260901094312 | 74 | 167 | 0.0 | 3.0 | 0.00 | 0.00 | 0.00 | 89 | 1015.7 |
| 20260901093313 | 74 | 192 | 1.0 | 2.0 | 0.00 | 0.00 | 0.00 | 89 | 1015.7 |
| 20260901092342 | 74 | 180 | 2.0 | 4.0 | 0.00 | 0.00 | 0.00 | 89 | 1015.6 |
| 20260901091316 | 74 | 165 | 2.0 | 4.0 | 0.00 | 0.00 | 0.00 | 89 | 1015.6 |
| 20260901090402 | 74 | 184 | 2.0 | 5.0 | 0.00 | 0.00 | 0.00 | 89 | 1015.5 |
| 20260901085329 | 74 | 200 | 1.0 | 4.0 | 0.00 | 0.00 | 0.00 | 90 | 1015.5 |
| 20260901084332 | 74 | 153 | 1.0 | 4.0 | 0.00 | 0.00 | 0.00 | 90 | 1015.5 |
| 20260901083328 | 74 | 169 | 2.0 | 3.0 | 0.00 | 0.00 | 0.00 | 90 | 1015.5 |
| 20260901082344 | 74 | 190 | 0.0 | 2.0 | 0.00 | 0.00 | 0.00 | 90 | 1015.9 |
| 20260901081333 | 74 | 190 | 0.0 | 2.0 | 0.00 | 0.00 | 0.00 | 90 | 1015.9 |
| 20260901080347 | 74 | 190 | 0.0 | 0.0 | 0.00 | 0.00 | 0.00 | 90 | 1015.9 |
| 20260901075330 | 74 | 190 | 0.0 | 3.0 | 0.00 | 0.00 | 0.00 | 90 | 1015.9 |
| 20260901074318 | 74 | 186 | 2.0 | 5.0 | 0.00 | 0.00 | 0.00 | 90 | 1015.8 |
| 20260901073331 | 74 | 213 | 0.0 | 2.0 | 0.00 | 0.00 | 0.00 | 90 | 1015.7 |
| 20260901072316 | 74 | 169 | 1.0 | 2.0 | 0.00 | 0.00 | 0.00 | 91 | 1015.6 |
| 20260901071323 | 74 | 210 | 2.0 | 3.0 | 0.00 | 0.00 | 0.00 | 91 | 1015.6 |
| 20260901070336 | 74 | 215 | 1.0 | 3.0 | 0.00 | 0.00 | 0.00 | 92 | 1015.7 |
| 20260901065318 | 74 | 188 | 1.0 | 3.0 | 0.00 | 0.00 | 0.00 | 93 | 1015.6 |
| 20260901064316 | 73 | 169 | 1.0 | 3.0 | 0.00 | 0.00 | 0.00 | 93 | 1015.9 |
| 20260901063317 | 73 | 213 | 2.0 | 5.0 | 0.00 | 0.00 | 0.00 | 93 | 1016.0 |
| 20260901062336 | 73 | 169 | 1.0 | 2.0 | 0.00 | 0.00 | 0.00 | 93 | 1016.2 |
| 20260901061318 | 73 | 169 | 0.0 | 1.0 | 0.00 | 0.00 | 0.00 | 93 | 1016.3 |
| 20260901060318 | 73 | 169 | 0.0 | 1.0 | 0.00 | 0.00 | 0.00 | 92 | 1016.3 |
| 20260901055315 | 73 | 169 | 1.0 | 2.0 | 0.00 | 0.00 | 0.00 | 92 | 1016.4 |
| 20260901054337 | 73 | 169 | 0.0 | 1.0 | 0.00 | 0.00 | 0.00 | 92 | 1016.5 |
| 20260901053316 | 74 | 169 | 0.0 | 1.0 | 0.00 | 0.00 | 0.00 | 92 | 1016.5 |
| 20260901052318 | 74 | 169 | 0.0 | 0.0 | 0.00 | 0.00 | 0.00 | 92 | 1016.4 |
| 20260901051317 | 74 | 169 | 0.0 | 1.0 | 0.00 | 0.00 | 0.00 | 92 | 1016.5 |
| 20260901050336 | 74 | 169 | 0.0 | 1.0 | 0.00 | 0.00 | 0.00 | 92 | 1016.5 |
| 20260901045339 | 74 | 169 | 0.0 | 0.0 | 0.00 | 0.00 | 0.00 | 92 | 1016.4 |
| 20260901044339 | 74 | 169 | 0.0 | 0.0 | 0.00 | 0.00 | 0.00 | 91 | 1016.3 |
| 20260901043328 | 74 | 169 | 0.0 | 1.0 | 0.00 | 0.00 | 0.00 | 91 | 1016.4 |
| 20260901042334 | 74 | 169 | 0.0 | 3.0 | 0.00 | 0.00 | 0.00 | 91 | 1016.4 |
| 20260901041326 | 74 | 169 | 0.0 | 2.0 | 0.00 | 0.00 | 0.00 | 91 | 1016.5 |
| 20260901040353 | 74 | 164 | 1.0 | 2.0 | 0.00 | 0.00 | 0.00 | 91 | 1016.6 |
| 20260901035320 | 73 | 219 | 0.0 | 1.0 | 0.00 | 0.00 | 0.00 | 91 | 1016.7 |
| 20260901034316 | 73 | 219 | 0.0 | 1.0 | 0.00 | 0.00 | 0.00 | 91 | 1016.9 |
| 20260901033353 | 73 | 219 | 0.0 | 1.0 | 0.00 | 0.00 | 0.00 | 91 | 1016.9 |
| 20260901032334 | 73 | 297 | 0.0 | 0.0 | 0.00 | 0.00 | 0.00 | 91 | 1017.0 |
| 20260901031336 | 73 | 297 | 0.0 | 1.0 | 0.00 | 0.00 | 0.00 | 91 | 1017.0 |
| 20260901030336 | 73 | 297 | 0.0 | 0.0 | 0.00 | 0.00 | 0.00 | 90 | 1017.0 |
| 20260901025340 | 73 | 297 | 0.0 | 0.0 | 0.00 | 0.00 | 0.00 | 90 | 1017.1 |
| 20260901024334 | 73 | 297 | 0.0 | 1.0 | 0.00 | 0.00 | 0.00 | 90 | 1017.2 |
| 20260901023336 | 73 | 297 | 0.0 | 1.0 | 0.00 | 0.00 | 0.00 | 90 | 1017.2 |
| 20260901022314 | 73 | 297 | 0.0 | 1.0 | 0.00 | 0.00 | 0.00 | 90 | 1017.3 |
| 20260901021314 | 73 | 297 | 0.0 | 1.0 | 0.00 | 0.00 | 0.00 | 89 | 1017.3 |
| 20260901020338 | 73 | 297 | 0.0 | 1.0 | 0.00 | 0.00 | 0.00 | 89 | 1017.1 |
| 20260901015329 | 73 | 297 | 0.0 | 1.0 | 0.00 | 0.00 | 0.00 | 88 | 1017.1 |
| 20260901014336 | 74 | 297 | 0.0 | 1.0 | 0.00 | 0.00 | 0.00 | 87 | 1017.1 |
| 20260901013316 | 74 | 297 | 0.0 | 1.0 | 0.00 | 0.00 | 0.00 | 86 | 1017.0 |
| 20260901012317 | 74 | 297 | 0.0 | 1.0 | 0.00 | 0.00 | 0.00 | 86 | 1016.8 |
| 20260901011321 | 75 | 297 | 0.0 | 3.0 | 0.00 | 0.00 | 0.00 | 85 | 1016.7 |
| 20260901010332 | 75 | 242 | 1.0 | 3.0 | 0.00 | 0.00 | 0.00 | 84 | 1016.6 |
| 20260901005321 | 75 | 188 | 1.0 | 3.0 | 0.00 | 0.00 | 0.00 | 84 | 1016.3 |
| 20260901004357 | 75 | 160 | 3.0 | 5.0 | 0.00 | 0.00 | 0.00 | 84 | 1016.3 |
| 20260901003358 | 76 | 163 | 0.0 | 1.0 | 0.00 | 0.00 | 0.00 | 83 | 1016.4 |
| 20260901002316 | 76 | 163 | 0.0 | 6.0 | 0.00 | 0.00 | 0.00 | 83 | 1016.4 |
| 20260901001342 | 76 | 154 | 4.0 | 8.0 | 0.00 | 0.00 | 0.00 | 82 | 1016.4 |
| 20260901000336 | 76 | 121 | 2.0 | 4.0 | 0.00 | 0.00 | 0.00 | 81 | 1016.4 |
| 20260831235341 | 76 | 111 | 2.0 | 6.0 | 0.00 | 0.00 | 0.00 | 80 | 1016.4 |
| 20260831234315 | 77 | 110 | 3.0 | 7.0 | 0.00 | 0.00 | 0.00 | 79 | 1016.6 |
| 20260831233317 | 78 | 82 | 5.0 | 13.0 | 0.00 | 0.00 | 0.00 | 77 | 1017.0 |
| 20260831232341 | 80 | 54 | 2.0 | 17.0 | 0.00 | 0.00 | 0.00 | 74 | 1017.1 |
| 20260831231315 | 82 | 319 | 3.0 | 4.0 | 0.00 | 0.00 | 0.00 | 77 | 1017.1 |
| 20260831230333 | 82 | 238 | 1.0 | 2.0 | 0.00 | 0.00 | 0.00 | 78 | 1016.7 |
| 20260831225335 | 82 | 143 | 2.0 | 4.0 | 0.00 | 0.00 | 0.00 | 75 | 1016.8 |
| 20260831224331 | 83 | 161 | 2.0 | 7.0 | 0.00 | 0.00 | 0.00 | 74 | 1016.7 |
| 20260831223335 | 84 | 173 | 4.0 | 7.0 | 0.00 | 0.00 | 0.00 | 74 | 1016.6 |
| 20260831222333 | 83 | 162 | 3.0 | 7.0 | 0.00 | 0.00 | 0.00 | 75 | 1016.8 |
| 20260831221333 | 84 | 183 | 3.0 | 8.0 | 0.00 | 0.00 | 0.00 | 73 | 1016.8 |